Temp
-9 -9 -9 -9 -10 -10 -11 -11 -12 -12 -12 -12 -12 -12 -11 -11 -11 -11 -11 -11 -11 -11 -11 -11 -11 -11 -11 -11 -11 -11 -11 -11
-10 -10 -10 -10 -10 -11 -11 -11 -12 -12 -12 -12 -11 -11 -11 -11 -11 -11 -11 -11 -11 -11 -11 -11 -11 -11 -11 -11 -11 -11 -11 -12
-10 -10 -10 -10 -11 -11 -11 -11 -12 -12 -12 -12 -11 -11 -11 -11 -11 -11 -11 -11 -11 -11 -11 -11 -11 -11 -11 -11 -11 -11 -12 -12
-10 -10 -10 -10 -11 -11 -11 -11 -11 -12 -12 -12 -12 -11 -11 -11 -11 -11 -11 -11 -11 -11 -11 -11 -11 -11 -11 -11 -11 -11 -12 -12
-11 -11 -11 -11 -11 -11 -11 -11 -11 -12 -12 -12 -12 -11 -11 -11 -11 -11 -11 -11 -11 -11 -11 -11 -11 -11 -11 -11 -11 -11 -11 -11
-11 -11 -11 -11 -11 -11 -12 -12 -12 -12 -12 -12 -12 -11 -11 -11 -11 -11 -11 -11 -11 -11 -11 -11 -11 -11 -11 -11 -11 -11 -11 -12
-11 -11 -11 -12 -11 -11 -12 -12 -12 -12 -12 -12 -12 -11 -11 -11 -11 -11 -11 -11 -11 -11 -11 -11 -11 -11 -11 -11 -11 -11 -12 -12
-11 -11 -12 -12 -11 -11 -12 -12 -12 -12 -12 -12 -12 -11 -11 -11 -11 -11 -11 -11 -11 -11 -11 -11 -11 -11 -11 -11 -11 -11 -11 -12
-11 -12 -12 -11 -12 -11 -12 -12 -12 -12 -12 -12 -12 -12 -12 -11 -11 -11 -11 -11 -11 -11 -11 -11 -11 -11 -11 -11 -11 -11 -11 -12
-11 -11 -11 -12 -12 -12 -12 -12 -12 -12 -12 -12 -12 -12 -12 -12 -11 -11 -11 -11 -12 -12 -12 -12 -12 -12 -11 -11 -11 -12 -12 -12
-11 -12 -12 -12 -12 -12 -12 -13 -12 -12 -12 -12 -12 -12 -11 -11 -11 -11 -12 -12 -12 -12 -12 -12 -12 -12 -12 -12 -12 -12 -12 -12
-12 -12 -12 -12 -12 -12 -13 -13 -12 -12 -12 -12 -12 -12 -12 -12 -12 -12 -12 -12 -12 -12 -12 -12 -12 -12 -12 -12 -12 -12 -13 -12
-12 -12 -12 -12 -12 -12 -13 -13 -12 -13 -12 -12 -12 -12 -12 -12 -12 -12 -12 -12 -12 -12 -12 -12 -12 -13 -13 -13 -12 -13 -12 -13
-12 -12 -13 -13 -13 -13 -13 -13 -13 -13 -13 -12 -12 -13 -12 -12 -12 -12 -12 -12 -12 -12 -12 -12 -12 -13 -13 -13 -13 -13 -13 -13
-13 -13 -13 -13 -13 -13 -13 -13 -13 -13 -13 -13 -13 -13 -13 -13 -13 -12 -12 -12 -13 -13 -13 -13 -13 -13 -13 -13 -14 -14 -13 -13
-13 -13 -13 -13 -13 -13 -13 -13 -14 -14 -13 -13 -13 -14 -14 -13 -13 -13 -13 -13 -13 -13 -13 -13 -13 -13 -14 -14 -14 -14 -15 -15
-13 -13 -13 -13 -13 -13 -13 -14 -14 -14 -14 -14 -14 -14 -14 -14 -14 -13 -13 -13 -13 -14 -14 -14 -14 -14 -14 -14 -15 -15 -15 -15
-13 -13 -13 -13 -14 -13 -14 -14 -15 -14 -14 -15 -15 -14 -14 -14 -14 -14 -14 -14 -14 -14 -14 -14 -14 -14 -15 -15 -15 -15 -15 -16
-13 -13 -13 -13 -14 -14 -14 -15 -15 -15 -15 -15 -15 -15 -15 -15 -15 -14 -14 -14 -15 -15 -15 -15 -15 -15 -15 -16 -16 -17 -17 -18
-13 -13 -13 -13 -14 -14 -15 -16 -16 -15 -15 -15 -15 -15 -15 -15 -15 -15 -15 -15 -16 -15 -16 -16 -16 -16 -16 -17 -18 -18 -18 -18
Height
5854 5854 5853 5852 5851 5850 5849 5849 5848 5848 5847 5847 5846 5845 5845 5845 5845 5844 5844 5843 5843 5843 5844 5844 5844 5844 5844 5844 5845 5844 5843 5842
5850 5849 5849 5848 5847 5847 5847 5846 5845 5845 5844 5843 5842 5842 5841 5841 5841 5841 5840 5840 5839 5840 5840 5841 5842 5842 5841 5842 5842 5842 5841 5841
5846 5845 5845 5843 5843 5842 5843 5843 5841 5841 5841 5839 5838 5837 5837 5837 5836 5837 5837 5837 5836 5836 5836 5837 5838 5838 5838 5838 5839 5838 5838 5837
5841 5841 5841 5840 5839 5838 5838 5838 5837 5837 5836 5835 5834 5833 5832 5832 5831 5831 5832 5832 5832 5832 5832 5832 5833 5833 5833 5833 5833 5834 5834 5833
5837 5837 5837 5836 5835 5834 5834 5833 5832 5831 5830 5829 5828 5827 5826 5827 5826 5826 5825 5825 5826 5826 5826 5827 5827 5827 5827 5827 5828 5828 5829 5828
5831 5831 5831 5831 5830 5829 5829 5828 5825 5824 5823 5822 5821 5821 5820 5820 5820 5820 5819 5818 5819 5819 5820 5820 5820 5820 5821 5821 5822 5822 5821 5821
5825 5824 5824 5824 5824 5823 5823 5822 5821 5819 5817 5815 5814 5814 5813 5812 5813 5813 5813 5812 5812 5812 5813 5813 5813 5813 5813 5814 5814 5815 5815 5815
5818 5818 5818 5818 5818 5817 5817 5816 5815 5814 5811 5809 5806 5806 5806 5806 5806 5806 5806 5806 5806 5806 5806 5806 5806 5806 5806 5807 5807 5807 5808 5809
5811 5811 5811 5811 5811 5811 5810 5809 5809 5807 5804 5802 5800 5799 5799 5799 5799 5799 5799 5799 5799 5799 5799 5799 5799 5799 5799 5799 5800 5800 5800 5800
5805 5804 5803 5803 5803 5803 5802 5801 5800 5799 5796 5794 5793 5793 5792 5792 5792 5792 5791 5791 5791 5791 5791 5791 5791 5791 5792 5792 5793 5792 5792 5792
5798 5797 5795 5795 5794 5794 5793 5792 5792 5791 5789 5787 5787 5786 5786 5785 5785 5784 5784 5784 5784 5783 5783 5783 5784 5784 5784 5784 5784 5784 5783 5783
5790 5789 5788 5785 5785 5785 5784 5784 5783 5782 5781 5780 5779 5779 5779 5779 5777 5777 5776 5776 5776 5776 5777 5777 5777 5776 5775 5775 5775 5774 5773 5772
5781 5781 5780 5778 5776 5776 5775 5775 5774 5772 5772 5772 5772 5772 5772 5771 5771 5770 5769 5769 5769 5768 5768 5768 5768 5767 5766 5765 5765 5764 5763 5761
5772 5772 5771 5769 5768 5766 5765 5765 5764 5764 5764 5764 5764 5764 5764 5764 5763 5762 5761 5760 5760 5759 5759 5758 5758 5757 5755 5754 5753 5753 5752 5748
5762 5762 5762 5760 5758 5757 5755 5755 5754 5754 5755 5755 5755 5755 5755 5755 5755 5754 5753 5752 5750 5750 5749 5748 5747 5747 5745 5744 5742 5740 5738 5736
5751 5751 5752 5750 5748 5747 5746 5744 5743 5744 5745 5745 5746 5746 5746 5746 5745 5745 5743 5742 5741 5740 5739 5738 5737 5735 5734 5732 5730 5728 5725 5721
5741 5740 5740 5740 5739 5737 5736 5734 5734 5733 5735 5736 5736 5736 5736 5736 5735 5734 5733 5732 5731 5729 5728 5726 5724 5723 5721 5718 5715 5715 5712 5709
5730 5728 5728 5728 5729 5727 5726 5724 5725 5723 5724 5725 5725 5725 5725 5724 5724 5723 5722 5720 5719 5717 5716 5714 5712 5710 5707 5705 5703 5700 5699 5695
5718 5717 5716 5716 5716 5716 5715 5714 5713 5712 5711 5712 5712 5713 5713 5712 5711 5710 5709 5708 5707 5705 5703 5701 5699 5697 5695 5694 5692 5689 5685 5681
5705 5703 5703 5703 5702 5702 5702 5702 5701 5700 5700 5700 5700 5700 5700 5699 5698 5696 5695 5694 5693 5692 5690 5689 5687 5685 5684 5683 5681 5676 5671 5665
Wind_Speed
22 20 21 21 20 19 19 19 20 21 21 22 23 22 20 19 19 18 17 17 15 15 14 13 13 13 13 12 12 12 12 11
23 21 20 21 21 19 19 19 21 21 22 22 21 20 19 18 18 18 16 15 13 13 14 13 12 12 11 11 14 15 15 15
25 23 21 21 21 22 20 21 22 23 24 25 26 26 24 23 22 20 19 18 17 17 18 19 19 18 17 17 19 20 21 21
28 24 22 22 23 23 23 25 27 28 28 29 28 27 26 26 25 25 26 25 24 22 22 23 24 25 23 24 25 25 24 23
30 26 24 23 25 25 24 25 28 30 32 32 33 32 30 29 28 28 29 31 29 28 27 28 29 29 28 26 27 29 29 28
33 31 28 27 28 27 26 26 31 32 34 37 36 34 33 31 30 29 30 31 32 33 33 32 33 32 30 28 30 32 32 32
35 36 31 30 30 31 29 28 31 35 39 38 39 36 34 33 32 30 30 31 31 30 30 30 30 31 32 31 32 33 32 32
38 38 36 35 33 34 34 33 33 37 40 40 37 36 34 33 32 31 31 30 30 30 31 31 32 32 33 34 34 33 33 33
39 41 40 38 35 34 34 34 34 39 40 38 36 35 33 33 32 31 30 32 32 31 32 33 34 35 35 34 35 36 37 37
41 41 42 39 36 34 36 37 38 40 39 35 33 33 32 33 32 31 31 32 33 33 33 33 34 35 35 36 37 38 39 40
39 40 41 40 38 40 42 40 43 40 36 33 33 31 32 32 32 33 34 34 34 34 34 35 35 37 39 40 40 41 42 44
38 40 41 41 42 40 42 44 43 38 35 31 33 32 32 33 33 33 34 34 34 35 36 38 39 40 42 42 43 44 46 47
38 40 42 43 44 45 44 48 40 35 33 32 30 32 33 34 35 35 35 36 37 37 38 39 40 42 43 45 46 47 50 51
38 40 42 45 46 49 49 47 41 36 33 32 33 34 36 37 38 38 38 38 39 40 40 41 42 44 45 47 49 51 51 54
39 40 43 47 50 51 52 46 42 38 34 33 35 36 37 38 39 41 41 41 42 42 42 43 43 45 47 49 51 54 56 58
44 44 45 49 50 50 48 47 45 41 36 36 38 38 39 40 41 43 43 42 42 43 44 44 45 46 47 51 53 54 56 58
46 47 47 49 49 49 48 47 47 49 44 41 41 42 43 44 46 46 46 45 45 46 46 47 47 48 50 52 52 53 53 56
48 48 48 49 50 51 49 50 50 53 51 47 46 47 48 49 51 51 50 48 48 49 49 49 50 51 51 51 52 52 52 54
50 50 51 51 52 53 52 52 53 56 57 52 51 52 51 52 52 53 51 51 52 53 53 53 52 51 49 47 46 47 48 51
55 54 53 52 54 55 54 55 56 59 61 57 55 56 56 55 54 56 55 54 54 56 54 51 47 45 42 37 39 41 46 52
Wind_Direction
294 298 299 297 292 290 289 289 290 288 286 287 289 290 292 293 294 289 285 286 289 291 290 284 280 279 275 276 273 271 275 282
289 292 295 294 293 292 287 285 284 285 286 287 287 289 290 294 290 287 285 280 282 284 286 286 286 280 275 274 275 279 278 278
286 290 290 291 294 294 291 290 287 286 286 284 284 284 285 283 282 282 279 274 272 275 279 283 284 284 282 278 272 275 278 277
283 284 285 288 291 291 292 291 289 288 286 284 283 284 284 280 279 278 274 273 270 271 273 277 280 281 279 278 277 276 275 276
279 280 278 280 284 287 291 292 292 292 292 289 286 281 279 277 277 278 275 267 268 268 268 272 276 279 277 276 276 278 278 277
276 277 276 277 281 285 289 293 295 297 294 292 289 284 276 272 272 274 275 269 266 265 266 269 271 272 273 274 274 275 277 279
270 273 274 277 278 283 287 289 293 296 294 289 287 283 276 271 270 271 270 269 265 266 268 270 268 268 271 272 274 274 275 276
267 270 272 274 276 280 283 284 286 295 294 287 283 279 275 272 271 269 268 268 267 268 270 271 270 270 271 275 276 277 277 278
267 269 272 274 277 279 282 285 289 294 294 282 279 277 275 272 272 271 269 269 270 272 272 271 271 270 270 270 273 276 279 280
270 271 274 276 277 275 280 287 290 292 291 276 271 273 273 271 271 271 271 272 273 273 272 271 270 269 270 271 274 275 277 279
272 273 274 276 274 280 284 286 290 292 286 272 266 270 271 272 272 273 273 274 275 275 275 274 273 273 274 275 275 276 277 278
271 271 274 274 276 280 282 289 293 290 284 277 266 268 272 273 272 271 272 274 275 276 276 275 276 276 276 276 278 279 278 279
271 273 274 277 281 282 284 291 291 286 279 276 276 274 276 277 275 273 273 273 275 275 276 277 278 279 279 279 279 278 279 278
271 272 274 277 279 281 284 288 289 285 278 276 281 281 280 280 279 277 275 274 275 276 277 279 280 281 281 281 280 279 279 280
269 270 271 274 275 279 281 285 284 282 277 276 282 283 281 280 280 279 277 277 279 279 279 279 281 281 281 281 281 281 283 283
268 269 271 273 273 275 276 280 281 280 275 276 281 284 283 281 280 278 278 278 279 278 277 277 278 280 282 283 282 284 286 288
267 271 273 272 270 271 271 275 277 278 278 278 280 282 284 283 281 280 280 279 279 279 280 280 281 283 285 286 288 289 289 290
264 268 269 270 267 267 266 268 271 274 277 277 278 279 279 280 281 281 279 279 280 280 281 282 284 287 288 287 286 288 288 290
263 263 265 266 262 261 261 263 265 269 273 275 276 278 278 279 279 278 279 280 282 282 282 285 287 288 288 286 289 292 294 295
267 264 260 261 257 255 255 258 260 265 270 272 273 276 278 277 277 277 276 278 281 283 288 289 286 285 287 293 306 311 313 309